Flag for Canada Weather past 2 weeks in Bathurst, New Brunswick, Canada

Now
45 °F

Overcast.


Feels Like: 40 °F
Forecast: N/A
Wind: 8 mph from Northeast

Location: Bathurst Airport

Current Time: Oct 22, 2014 at 6:42:58 PM

Latest Report: Oct 22, 2014 at 5:00 PM


Visibility: 15 mi

Pressure: 30.44 "Hg

Humidity: 81%

Dew point: 39 °F

Location of BathurstLocation

Historic Weather in Bathurst — Graph

°F

Bathurst temperature yesterday

Maximum temperature yesterday: 52 °F (at 4:00 PM)
Minimum temperature yesterday: 32 °F (at 5:00 AM)
Average temperature yesterday: 40 °F

Past Weeks' High & Low Weather Summary

 TemperatureHumidityPressure
High70 °F (Oct 15, 10:00 AM)100% (Oct 8, 5:00 AM)30.48 "Hg (Oct 8, 5:00 AM)
Low30 °F (Oct 12, 3:00 AM)26% (Oct 13, 5:00 PM)29.38 "Hg (Oct 19, 4:00 AM)
Average49 °F78%29.90 "Hg
* Reported Oct 7 5:00 PM — Oct 22 5:00 PM, Bathurst, Weather by CustomWeather, © 2014

Note: Actual official high and low records may vary slightly from our data, if they occured in-between our weather recording intervals... More about our weather records

Advertising

Bathurst weather history for previous 24 hours

 ConditionsComfort  
Time TempWeatherWind HumidityBarometerVisibility
5:00 PM
Oct 22
45 °FOvercast.8 mph81%30.44 "Hg15 mi
4:00 PM45 °FPartly sunny.9 mph81%30.45 "Hg15 mi
3:00 PM46 °FPartly sunny.10 mph76%30.46 "Hg15 mi
2:00 PM46 °FPartly sunny.12 mph76%30.46 "Hg15 mi
1:00 PM48 °FBroken clouds.9 mph71%30.47 "Hg15 mi
12:00 PM46 °FScattered clouds.9 mph71%30.48 "Hg15 mi
11:00 AM45 °FPartly sunny.8 mph76%30.47 "Hg15 mi
10:00 AM43 °FPartly sunny.2 mph81%30.47 "Hg15 mi
9:00 AM41 °FPartly sunny.3 mph87%30.46 "Hg15 mi
8:00 AM41 °FPassing clouds.2 mph87%30.44 "Hg15 mi
7:00 AM41 °FPassing clouds.3 mph87%30.41 "Hg15 mi
6:00 AM39 °FPassing clouds.5 mph93%30.40 "Hg15 mi
5:00 AM36 °FPassing clouds.3 mph100%30.39 "Hg15 mi
4:00 AM37 °FPassing clouds.3 mph93%30.38 "Hg15 mi
3:00 AM37 °FPassing clouds.5 mph87%30.37 "Hg15 mi
2:00 AM37 °FPassing clouds.5 mph87%30.36 "Hg15 mi
1:00 AM39 °FPassing clouds.3 mph75%30.33 "Hg15 mi
12:00 AM39 °FPassing clouds.3 mph75%30.33 "Hg15 mi
11:00 PM
Oct 21
39 °FPassing clouds.2 mph75%30.30 "Hg15 mi
10:00 PM41 °FPassing clouds.5 mph70%30.26 "Hg15 mi
9:00 PM36 °FPassing clouds.No wind87%30.24 "Hg15 mi
8:00 PM36 °FPassing clouds.2 mph87%30.24 "Hg15 mi
7:00 PM41 °FPassing clouds.5 mph76%30.21 "Hg15 mi
6:00 PM46 °FPassing clouds.3 mph57%30.18 "Hg15 mi
Weather by CustomWeather, © 2014

See weather overviewHow to use our weather pages